Total_Precipitation_Accumulation
0.94 0.88 0.81 0.79 0.75 0.65 0.57 0.54 0.45 0.43 0.39 0.33 0.27 0.23 0.20 0.19 0.17 0.18 0.19 0.19 0.23 0.34 0.48 0.61 0.68 0.67 0.66 0.66 0.68 0.67 0.62 0.60 0.57 0.55 0.54 0.54 0.54 0.54 0.54 0.53 0.53 0.53 0.55
1.11 0.99 0.90 0.85 0.80 0.73 0.66 0.60 0.51 0.50 0.48 0.44 0.35 0.28 0.25 0.24 0.22 0.21 0.20 0.21 0.22 0.24 0.36 0.53 0.71 0.77 0.77 0.80 0.85 0.85 0.79 0.74 0.70 0.66 0.65 0.64 0.63 0.61 0.62 0.63 0.61 0.62 0.65
1.40 1.26 1.11 0.97 0.84 0.79 0.79 0.78 0.74 0.68 0.60 0.53 0.44 0.38 0.33 0.30 0.26 0.23 0.22 0.22 0.21 0.22 0.29 0.42 0.58 0.70 0.73 0.82 0.92 0.95 0.93 0.90 0.88 0.84 0.78 0.76 0.76 0.75 0.75 0.76 0.77 0.79 0.82
1.56 1.46 1.26 1.11 1.05 1.02 0.97 0.95 0.91 0.84 0.72 0.60 0.51 0.48 0.43 0.37 0.32 0.30 0.29 0.26 0.23 0.21 0.24 0.34 0.42 0.51 0.64 0.76 0.90 0.99 0.97 0.94 0.92 0.89 0.85 0.82 0.81 0.83 0.85 0.87 0.89 0.92 0.99
1.61 1.54 1.38 1.24 1.24 1.21 1.12 1.05 1.02 0.95 0.86 0.76 0.69 0.61 0.55 0.49 0.45 0.44 0.42 0.39 0.34 0.30 0.28 0.33 0.36 0.38 0.47 0.61 0.78 0.94 1.01 0.99 0.97 0.96 0.97 0.94 0.91 0.93 0.94 0.97 1.01 1.07 1.16
1.65 1.59 1.50 1.39 1.31 1.34 1.31 1.23 1.12 1.05 0.98 0.90 0.83 0.76 0.71 0.63 0.57 0.54 0.52 0.48 0.47 0.42 0.39 0.39 0.38 0.36 0.38 0.48 0.59 0.78 0.94 1.00 1.01 1.01 1.02 1.04 1.02 1.02 1.05 1.12 1.21 1.30 1.42
1.70 1.61 1.50 1.50 1.46 1.37 1.34 1.35 1.35 1.30 1.21 1.14 1.11 0.96 0.79 0.72 0.66 0.59 0.57 0.55 0.53 0.52 0.49 0.48 0.45 0.43 0.42 0.45 0.51 0.63 0.77 0.94 1.09 1.13 1.11 1.09 1.10 1.16 1.25 1.34 1.43 1.54 1.64
1.76 1.70 1.58 1.45 1.48 1.49 1.40 1.39 1.41 1.46 1.47 1.46 1.44 1.36 1.14 0.92 0.71 0.59 0.58 0.58 0.59 0.62 0.64 0.62 0.58 0.53 0.51 0.51 0.51 0.55 0.65 0.78 0.95 1.15 1.24 1.25 1.27 1.32 1.47 1.65 1.76 1.84 1.92
2.03 1.83 1.78 1.68 1.52 1.52 1.47 1.38 1.32 1.32 1.38 1.47 1.52 1.61 1.47 1.14 0.86 0.70 0.61 0.57 0.57 0.60 0.63 0.66 0.64 0.62 0.58 0.53 0.49 0.50 0.54 0.63 0.78 1.00 1.25 1.42 1.51 1.62 1.79 1.98 2.17 2.30 2.34
2.33 2.21 2.05 1.94 1.78 1.66 1.58 1.54 1.52 1.45 1.42 1.42 1.43 1.40 1.36 1.22 1.14 0.97 0.76 0.67 0.62 0.61 0.63 0.64 0.61 0.61 0.65 0.65 0.63 0.62 0.64 0.68 0.80 0.96 1.21 1.47 1.70 1.94 2.19 2.37 2.49 2.59 2.61
2.37 2.30 2.22 2.13 1.97 1.83 1.76 1.75 1.69 1.65 1.61 1.53 1.46 1.39 1.37 1.22 1.10 1.10 0.92 0.73 0.72 0.70 0.70 0.69 0.66 0.65 0.67 0.71 0.72 0.76 0.80 0.81 0.91 1.08 1.34 1.65 2.01 2.34 2.63 2.82 2.88 2.79 2.69
2.51 2.36 2.23 2.17 2.10 2.01 1.92 1.89 1.88 1.82 1.72 1.65 1.61 1.55 1.52 1.46 1.26 1.22 1.12 0.89 0.84 0.78 0.77 0.76 0.77 0.77 0.76 0.78 0.82 0.91 0.89 0.89 0.97 1.14 1.46 1.79 2.01 2.21 2.42 2.68 2.88 2.92 2.89
2.39 2.38 2.29 2.24 2.21 2.07 1.99 1.96 1.92 1.84 1.80 1.73 1.69 1.66 1.60 1.50 1.43 1.46 1.49 1.30 1.13 0.95 0.89 0.86 0.82 0.81 0.82 0.84 0.87 0.99 0.95 1.00 1.04 1.09 1.30 1.64 1.80 1.81 1.86 2.05 2.38 2.69 2.83
2.26 2.30 2.33 2.23 2.20 2.16 2.03 1.96 1.90 1.79 1.76 1.74 1.66 1.64 1.62 1.55 1.53 1.57 1.64 1.70 1.59 1.29 1.08 0.95 0.89 0.94 0.98 0.98 1.01 1.07 0.91 0.98 0.98 1.01 1.10 1.25 1.32 1.30 1.35 1.50 1.76 2.03 2.24
2.12 2.13 2.17 2.10 2.02 2.00 1.96 1.91 1.86 1.75 1.69 1.64 1.58 1.55 1.52 1.46 1.47 1.49 1.57 1.74 1.95 1.78 1.35 1.02 0.94 0.95 1.03 1.05 1.12 1.04 0.91 0.99 1.01 1.00 1.00 0.99 1.02 1.08 1.13 1.23 1.36 1.49 1.64
1.78 1.85 1.90 1.90 1.86 1.81 1.79 1.76 1.70 1.67 1.66 1.56 1.51 1.48 1.41 1.34 1.38 1.45 1.52 1.59 1.77 1.91 1.63 1.11 0.93 0.88 0.94 0.98 1.04 0.95 0.86 0.99 0.96 0.90 0.86 0.87 0.91 0.98 1.03 1.11 1.17 1.23 1.30
1.45 1.50 1.51 1.54 1.58 1.59 1.58 1.58 1.54 1.52 1.54 1.50 1.48 1.49 1.44 1.36 1.36 1.37 1.41 1.45 1.51 1.65 1.65 1.20 1.00 0.97 0.97 0.95 0.97 0.92 0.84 0.83 0.81 0.88 0.84 0.82 0.84 0.91 0.98 1.02 1.05 1.09 1.14
1.30 1.29 1.29 1.27 1.26 1.28 1.30 1.31 1.30 1.31 1.34 1.35 1.34 1.38 1.39 1.37 1.38 1.34 1.33 1.32 1.29 1.29 1.39 1.24 0.97 0.93 0.93 0.91 0.96 0.98 0.91 0.83 0.75 0.83 0.82 0.79 0.81 0.84 0.89 0.96 1.01 1.05 1.08
1.24 1.19 1.17 1.13 1.11 1.09 1.10 1.14 1.19 1.19 1.21 1.21 1.21 1.24 1.26 1.32 1.30 1.22 1.19 1.17 1.15 1.16 1.25 1.27 1.05 0.92 0.90 0.91 0.97 0.98 0.93 0.89 0.83 0.87 0.90 0.88 0.88 0.86 0.90 0.96 1.03 1.08 1.11
1.27 1.16 1.10 1.07 1.05 1.06 1.06 1.08 1.15 1.20 1.20 1.19 1.21 1.22 1.18 1.18 1.15 1.11 1.11 1.11 1.18 1.29 1.31 1.35 1.24 1.04 0.96 0.93 1.00 1.01 0.99 0.92 0.92 0.90 1.00 1.04 1.04 0.99 0.95 0.98 1.02 1.07 1.11
1.24 1.20 1.14 1.10 1.07 1.06 1.09 1.12 1.14 1.18 1.20 1.21 1.18 1.16 1.13 1.15 1.13 1.11 1.13 1.15 1.21 1.38 1.49 1.54 1.44 1.25 1.12 1.05 1.01 0.97 1.06 1.07 1.08 1.00 1.00 1.02 1.04 1.05 1.03 1.06 1.08 1.08 1.13
1.18 1.22 1.22 1.19 1.14 1.13 1.30 1.28 1.19 1.17 1.19 1.20 1.17 1.11 1.09 1.13 1.10 1.12 1.15 1.22 1.36 1.53 1.67 1.71 1.61 1.41 1.13 1.00 1.02 1.15 1.31 1.50 1.45 1.07 1.04 1.06 1.04 1.13 1.08 1.05 1.20 1.24 1.22
1.19 1.25 1.28 1.28 1.25 1.29 1.36 1.23 1.21 1.12 1.09 1.10 1.09 1.06 1.02 0.98 1.03 0.96 1.03 1.16 1.26 1.39 1.46 1.48 1.45 1.18 1.03 0.99 1.22 1.50 1.54 1.58 1.38 1.10 1.26 1.39 1.21 1.20 1.11 1.13 1.32 1.25 1.21
1.17 1.24 1.29 1.26 1.20 1.22 1.24 1.13 1.10 1.02 1.02 1.01 0.99 0.98 0.99 0.99 0.98 1.04 1.10 1.16 1.04 0.98 1.02 1.02 1.05 1.03 1.05 1.16 1.46 1.79 1.90 1.91 1.66 1.43 1.43 1.57 1.29 1.17 1.12 1.15 1.32 1.25 1.15
1.13 1.10 1.12 1.15 1.13 1.13 1.11 1.01 0.99 0.93 0.95 0.91 0.87 0.87 0.90 0.91 1.08 1.26 1.30 1.31 1.10 0.89 0.90 1.03 1.14 1.18 1.25 1.35 1.49 1.83 2.11 2.25 1.97 1.47 1.30 1.41 1.30 1.23 1.23 1.19 1.23 1.29 1.20
1.11 1.05 1.00 0.97 0.95 0.96 1.00 0.93 0.91 0.86 0.89 0.85 0.81 0.81 0.92 0.94 1.11 1.26 1.21 1.27 1.23 1.01 0.95 1.00 1.06 1.10 1.08 1.17 1.41 1.58 2.09 2.64 2.36 1.80 1.23 1.36 1.39 1.49 1.73 1.30 1.13 1.17 1.21